GAF5067 EDXW-EDDH

Flight info

Callsign GAF5067
Flight time 0h 30m
Altitude 9000
Route OLDIP1A/14 OLDIP DCT BADOS DCT OMWEG/N0250F080 DCT RIBSO RIBSO7A
Aircraft C160/M-SDFGHIRTUY/S

Departure

Time 2026-05-06 10:14
Airport Westerland Sylt Airport (EDXW)

Arrival

Time 2026-05-06 10:44
Airport Hamburg Helmut Schmidt Airport (EDDH)
Time Latitude Longitude Altitude Speed Heading
2026-05-06 09:56 54.92024 8.33887 -26 ft 0 kts 86°
2026-05-06 10:10 54.92030 8.33899 39 ft 2 kts 32°
2026-05-06 10:10 54.92043 8.33888 38 ft 3 kts 302°
2026-05-06 10:10 54.92034 8.33832 39 ft 9 kts 251°
2026-05-06 10:11 54.91982 8.33701 40 ft 17 kts 239°
2026-05-06 10:11 54.91956 8.33503 39 ft 5 kts 266°
2026-05-06 10:11 54.91956 8.33502 39 ft 0 kts 266°
2026-05-06 10:11 54.91956 8.33499 39 ft 2 kts 266°
2026-05-06 10:12 54.91953 8.33410 39 ft 13 kts 266°
2026-05-06 10:12 54.91895 8.33341 37 ft 14 kts 148°
2026-05-06 10:12 54.91662 8.33638 41 ft 72 kts 143°
2026-05-06 10:12 54.91106 8.34331 43 ft 120 kts 143°
2026-05-06 10:13 54.90323 8.35249 114 ft 151 kts 140°
2026-05-06 10:13 54.89415 8.36457 273 ft 177 kts 137°
2026-05-06 10:13 54.88735 8.37389 369 ft 196 kts 136°
2026-05-06 10:13 54.87628 8.39003 394 ft 225 kts 140°
2026-05-06 10:14 54.86273 8.40466 849 ft 222 kts 147°
2026-05-06 10:14 54.84993 8.41799 1626 ft 206 kts 142°
2026-05-06 10:14 54.83909 8.43183 2399 ft 194 kts 139°
2026-05-06 10:14 54.82926 8.44449 2568 ft 213 kts 140°
2026-05-06 10:15 54.81689 8.45974 2853 ft 222 kts 141°
2026-05-06 10:15 54.80421 8.47502 3259 ft 222 kts 141°
2026-05-06 10:15 54.79165 8.49055 3657 ft 221 kts 141°
2026-05-06 10:15 54.77915 8.50612 4045 ft 221 kts 141°
2026-05-06 10:16 54.76652 8.52148 4435 ft 222 kts 141°
2026-05-06 10:16 54.75392 8.53689 4805 ft 222 kts 141°
2026-05-06 10:16 54.74137 8.55240 5172 ft 222 kts 141°
2026-05-06 10:16 54.72876 8.56792 5551 ft 222 kts 142°
2026-05-06 10:17 54.71613 8.58332 5948 ft 222 kts 142°
2026-05-06 10:17 54.70355 8.59872 6329 ft 221 kts 142°
2026-05-06 10:17 54.69101 8.61411 6683 ft 221 kts 142°
2026-05-06 10:17 54.67840 8.62953 7036 ft 222 kts 143°
2026-05-06 10:18 54.66577 8.64495 7378 ft 223 kts 143°
2026-05-06 10:18 54.65307 8.66045 7724 ft 224 kts 143°
2026-05-06 10:18 54.64032 8.67600 8083 ft 225 kts 144°
2026-05-06 10:18 54.62772 8.69202 8424 ft 225 kts 142°
2026-05-06 10:19 54.61554 8.70891 8759 ft 228 kts 141°
2026-05-06 10:19 54.60347 8.72763 8850 ft 239 kts 135°
2026-05-06 10:19 54.59183 8.74889 8892 ft 248 kts 133°
2026-05-06 10:19 54.57969 8.77058 8910 ft 255 kts 135°
2026-05-06 10:20 54.56702 8.79237 8913 ft 259 kts 135°
2026-05-06 10:20 54.55447 8.81431 8914 ft 261 kts 135°
2026-05-06 10:20 54.54174 8.83679 8917 ft 263 kts 135°
2026-05-06 10:20 54.52890 8.85920 8917 ft 263 kts 135°
2026-05-06 10:21 54.51604 8.88158 8914 ft 262 kts 135°
2026-05-06 10:21 54.50329 8.90385 8915 ft 261 kts 135°
2026-05-06 10:21 54.49056 8.92611 8913 ft 261 kts 135°
2026-05-06 10:21 54.47784 8.94826 8911 ft 260 kts 135°
2026-05-06 10:22 54.46512 8.97035 8909 ft 260 kts 135°
2026-05-06 10:22 54.45176 8.99111 8901 ft 258 kts 148°
2026-05-06 10:22 54.43489 9.00063 8906 ft 256 kts 170°
2026-05-06 10:22 54.41742 9.00643 8915 ft 256 kts 169°
2026-05-06 10:23 54.39998 9.01280 8912 ft 257 kts 168°
2026-05-06 10:23 54.38256 9.01948 8907 ft 256 kts 168°
2026-05-06 10:23 54.36548 9.02840 8908 ft 256 kts 161°
2026-05-06 10:23 54.34866 9.03858 8906 ft 256 kts 162°
2026-05-06 10:24 54.33172 9.04810 8901 ft 256 kts 163°
2026-05-06 10:24 54.31473 9.05751 8899 ft 256 kts 163°
2026-05-06 10:24 54.29781 9.06721 8898 ft 256 kts 162°
2026-05-06 10:24 54.28090 9.07687 8904 ft 256 kts 163°
2026-05-06 10:25 54.26391 9.08639 8900 ft 256 kts 163°
2026-05-06 10:25 54.24697 9.09593 8894 ft 256 kts 163°
2026-05-06 10:25 54.23005 9.10553 8892 ft 256 kts 163°
2026-05-06 10:25 54.21314 9.11508 8889 ft 256 kts 163°
2026-05-06 10:26 54.19623 9.12459 8896 ft 256 kts 163°
2026-05-06 10:26 54.17931 9.13409 8898 ft 256 kts 163°
2026-05-06 10:26 54.16241 9.14359 8888 ft 256 kts 163°
2026-05-06 10:26 54.14555 9.15311 8883 ft 255 kts 163°
2026-05-06 10:27 54.13401 9.15959 8885 ft 255 kts 163°
2026-05-06 10:27 54.11715 9.16901 8887 ft 255 kts 163°
2026-05-06 10:27 54.10027 9.17846 8892 ft 255 kts 163°
2026-05-06 10:27 54.08340 9.18796 8891 ft 255 kts 163°
2026-05-06 10:28 54.06652 9.19741 8889 ft 255 kts 163°
2026-05-06 10:28 54.04962 9.20679 8882 ft 255 kts 163°
2026-05-06 10:28 54.03273 9.21624 8882 ft 255 kts 163°
2026-05-06 10:28 54.01585 9.22572 8882 ft 255 kts 163°
2026-05-06 10:29 53.99898 9.23509 8872 ft 255 kts 163°
2026-05-06 10:29 53.98212 9.24446 8872 ft 255 kts 163°
2026-05-06 10:29 53.96553 9.25375 8875 ft 254 kts 163°
2026-05-06 10:29 53.94870 9.26311 8870 ft 254 kts 163°
2026-05-06 10:30 53.93190 9.27241 8871 ft 254 kts 163°
2026-05-06 10:30 53.91508 9.28173 8878 ft 254 kts 163°
2026-05-06 10:30 53.89830 9.29108 8872 ft 254 kts 163°
2026-05-06 10:30 53.88150 9.30039 8872 ft 254 kts 163°
2026-05-06 10:31 53.86469 9.30968 8872 ft 254 kts 164°
2026-05-06 10:31 53.84789 9.31899 8871 ft 254 kts 163°
2026-05-06 10:31 53.83110 9.32829 8873 ft 254 kts 163°
2026-05-06 10:31 53.81431 9.33757 8870 ft 254 kts 164°
2026-05-06 10:32 53.79750 9.34680 8868 ft 254 kts 164°
2026-05-06 10:32 53.78071 9.35608 8873 ft 254 kts 163°
2026-05-06 10:32 53.76387 9.36536 8881 ft 255 kts 163°
2026-05-06 10:32 53.74702 9.37464 8874 ft 255 kts 163°
2026-05-06 10:33 53.73088 9.38356 8877 ft 255 kts 163°
2026-05-06 10:33 53.71399 9.39282 8876 ft 255 kts 164°
2026-05-06 10:33 53.69710 9.40207 8879 ft 255 kts 163°
2026-05-06 10:33 53.68112 9.41086 8877 ft 255 kts 163°
2026-05-06 10:34 53.66426 9.42013 8895 ft 254 kts 163°
2026-05-06 10:34 53.64686 9.42956 8246 ft 274 kts 163°
2026-05-06 10:34 53.62854 9.43925 7499 ft 282 kts 163°
2026-05-06 10:34 53.60987 9.44884 6754 ft 279 kts 163°
2026-05-06 10:35 53.59130 9.45810 6018 ft 277 kts 163°
2026-05-06 10:35 53.57291 9.46684 5232 ft 273 kts 163°
2026-05-06 10:35 53.55459 9.47508 4464 ft 270 kts 163°
2026-05-06 10:35 53.53642 9.48282 3727 ft 268 kts 163°
2026-05-06 10:36 53.51876 9.49039 3346 ft 255 kts 160°
2026-05-06 10:36 53.50357 9.50346 3170 ft 240 kts 144°
2026-05-06 10:36 53.48970 9.51849 3094 ft 236 kts 144°
2026-05-06 10:36 53.47602 9.53339 3030 ft 233 kts 143°
2026-05-06 10:37 53.46250 9.54815 3020 ft 231 kts 143°
2026-05-06 10:37 53.44966 9.56408 2997 ft 227 kts 130°
2026-05-06 10:37 53.44438 9.58769 2989 ft 219 kts 85°
2026-05-06 10:37 53.44827 9.61216 3013 ft 217 kts 71°
2026-05-06 10:38 53.45290 9.63633 3012 ft 218 kts 72°
2026-05-06 10:38 53.45981 9.65828 3000 ft 218 kts 46°
2026-05-06 10:38 53.47201 9.67405 3020 ft 219 kts 38°
2026-05-06 10:38 53.48296 9.69128 3017 ft 219 kts 47°
2026-05-06 10:39 53.49321 9.71025 3025 ft 220 kts 49°
2026-05-06 10:39 53.50330 9.72967 3023 ft 221 kts 50°
2026-05-06 10:39 53.51304 9.74953 3014 ft 219 kts 52°
2026-05-06 10:39 53.52234 9.76925 3019 ft 211 kts 52°
2026-05-06 10:40 53.53110 9.78816 2913 ft 203 kts 53°
2026-05-06 10:40 53.54019 9.80759 2415 ft 207 kts 51°
2026-05-06 10:40 53.54853 9.82323 2338 ft 163 kts 47°
2026-05-06 10:40 53.55587 9.83603 1962 ft 143 kts 50°
2026-05-06 10:41 53.56166 9.84885 1855 ft 132 kts 53°
2026-05-06 10:41 53.56746 9.86069 1830 ft 133 kts 49°
2026-05-06 10:41 53.57361 9.87318 1673 ft 142 kts 51°
2026-05-06 10:41 53.58002 9.88644 1400 ft 149 kts 50°
2026-05-06 10:42 53.58677 9.89985 1038 ft 150 kts 49°
2026-05-06 10:42 53.59321 9.91253 858 ft 131 kts 50°
2026-05-06 10:42 53.59876 9.92404 668 ft 124 kts 50°
2026-05-06 10:42 53.60404 9.93512 507 ft 117 kts 49°
2026-05-06 10:43 53.60916 9.94540 357 ft 114 kts 49°
2026-05-06 10:43 53.61438 9.95590 226 ft 120 kts 48°
2026-05-06 10:43 53.61990 9.96696 67 ft 124 kts 49°
2026-05-06 10:44 53.62935 9.98604 47 ft 77 kts 49°
2026-05-06 10:44 53.63094 9.99101 49 ft 33 kts 89°
2026-05-06 10:44 53.63090 9.99212 48 ft 5 kts 95°
2026-05-06 10:44 53.63068 9.99272 48 ft 8 kts 152°
2026-05-06 10:45 53.62986 9.99337 48 ft 17 kts 155°
2026-05-06 10:45 53.62923 9.99333 46 ft 7 kts 247°
2026-05-06 10:45 53.62901 9.99255 47 ft 0 kts 241°